Zurück zum Katalog

STARLINK-36858

AktivKommunikationSSO
NORAD 68021·PAYLOAD·🇺🇸 United States

Gestartet Mar 1, 2026 von Vandenberg Space Force Base

Loading…

Nächste Überflüge (nächste 24 Stunden)

TLE

AktuellSource: CelesTrak SupGP

Epoche: Sep 14, 2026, 16:04 UTC

1 68021C 26040G   26257.66993056  .00004676  00000+0  14517-3 0  2575
2 68021  97.2857 205.0632 0001820  88.7287 230.7229 15.33435634    19

Verfolge STARLINK-36858 in Echtzeit mit AllMySat

Download on the App Store